Location: Paris
(48.8667°N, 2.3333°E)
Time: 02:15:06
(UTC+00:00)

Daily predictions for brighter satellites

Satellite Brightness Start Highest point End
(mag) Time Altitude Azimuth Time Altitude Azimuth Time Altitude Azimuth
CENTAUR R/B 4.0 02:45:10 43° NE 02:45:10 43° NE 02:52:12 10° ESE
USA 238 DEB 4.4 03:18:26 52° E 03:18:26 52° E 03:24:07 10° SE
USA 238 4.4 03:18:30 52° E 03:18:30 52° E 03:24:13 10° SE
Cosmos 2297 Rocket 4.3 03:32:24 18° NNE 03:32:24 18° NNE 03:33:46 10° NNE
ALOS 4.3 03:35:56 10° NE 03:39:49 25° E 03:40:31 24° ESE
Cosmos 2263 Rocket 3.8 03:46:18 17° SSE 03:49:41 31° ESE 03:54:38 10° NE
SJ 16-02 4.2 03:58:28 10° SE 04:01:15 17° E 04:04:02 10° ENE
ATLAS 3B R/B 3.8 03:59:42 32° N 04:01:46 38° NNE 04:08:19 10° E
Cosmos 1603 3.9 04:08:24 67° ENE 04:08:24 67° ENE 04:13:58 10° SE
FENGYUN 3A 4.3 04:06:46 10° NNE 04:12:05 53° E 04:17:21 10° S
COSMO-SKYMED 1 4.2 04:08:31 10° SE 04:12:21 32° ENE 04:13:49 25° NNE
Cosmos 1386 Rocket 4.5 04:11:01 10° S 04:17:25 84° E 04:23:48 10° N
Cosmos 1943 3.4 04:17:13 62° NNE 04:17:59 70° ENE 04:23:40 10° SE
ADEOS 4.2 04:14:42 10° NNE 04:19:51 54° E 04:24:56 10° S
NOSS 3-2 (C) 3.9 04:20:32 56° NW 04:22:27 81° SW 04:30:58 10° SSE
ATLAS CENTAUR R/B 3.5 04:23:42 17° NE 04:23:42 17° NE 04:26:10 10° ENE
Cosmos 1777 Rocket 4.1 04:23:32 62° SSE 04:24:14 72° ESE 04:29:27 10° NNE
Nadezhda 1 Rocket 3.9 04:28:56 66° WSW 04:28:56 66° WSW 04:34:49 10° S
Meteor 1-4 Rocket 4.2 04:31:52 31° ENE 04:31:52 31° ENE 04:34:52 10° SE
Cosmos 2084 4.3 04:33:10 43° SSE 04:33:10 43° SSE 04:36:18 10° SSE
SL-4 R/B 2.9 04:33:39 45° E 04:33:39 45° E 04:36:21 10° ENE
Cosmos 2082 4.5 04:35:29 37° NNW 04:35:29 37° NNW 04:39:29 10° NNE
Meteor 1-31 Rocket 3.5 04:30:56 10° NNE 04:34:42 50° E 04:35:13 46° SE
CENTAUR R/B 3.1 04:32:23 45° NW 04:35:19 73° SW 04:44:06 10° SSE
Cosmos 1538 Rocket 3.9 04:35:15 80° W 04:35:20 80° WSW 04:40:37 10° SSE
Cosmos 2227 Rocket 3.7 04:40:17 22° NNW 04:40:17 22° NNW 04:43:01 10° NNE
Cosmos 2227 4.3 04:36:02 21° SSW 04:39:52 73° ESE 04:45:29 10° NNE
ARGOS Delta rocket 3.8 04:36:43 10° N 04:41:59 83° WNW 04:46:56 10° SSW
ATLAS 2AS CENTAUR R/B 3.8 04:37:11 10° SSW 04:44:46 52° ESE 04:52:19 10° NE
deb Chang Zheng 4 3.9 04:41:24 10° NNE 04:45:43 64° ESE 04:50:01 10° S
Cosmos 489 Rocket 4.4 04:45:08 48° NW 04:46:44 63° WSW 04:52:57 10° S
NOSS 3-2 (A) 4.4 04:50:27 40° W 04:51:42 42° WSW 04:59:31 10° S
Cosmos 1633 2.7 04:53:09 10° S 04:56:39 69° E 05:00:11 10° NNE
FALCON 9 DEB 4.1 04:57:31 41° NNE 04:57:31 41° NNE 05:00:08 10° ENE
Gbstr 26 Del rocket 2.6 04:56:52 73° NNE 04:56:52 73° NNE 05:00:38 10° ESE
USA 307 3.3 04:57:31 47° N 04:57:31 47° N 05:01:40 10° ENE
Lacrosse 4 Rocket 1.4 04:58:45 60° NNW 04:59:31 89° ENE 05:03:55 10° SSE
SKYMED 2 3.5 04:55:57 10° SSE 05:00:17 90° SW 05:02:27 30° NNW
METEOR-M 4.0 04:57:51 10° NNE 05:03:12 76° WNW 05:08:32 10° SSW
Cosmos 1184 Rocket 3.1 05:00:27 10° S 05:03:41 63° E 05:06:58 10° NNE
USA 308 3.3 05:03:29 46° NNW 05:03:42 46° N 05:07:53 10° ENE
SAR-Lupe-4 3.6 05:00:51 10° S 05:03:59 64° SSW 05:03:59 64° SSW
USA 238 DEB 4.4 05:05:56 34° W 05:07:20 37° WSW 05:14:03 10° S
USA 238 4.4 05:06:00 34° W 05:07:26 37° WSW 05:14:10 10° S
Cosmos 1461 3.4 05:09:38 45° WSW 05:09:56 46° WSW 05:14:18 10° SSE
Cosmos 1745 Rocket 4.3 05:07:56 22° SW 05:11:36 41° WNW 05:17:35 10° N
CZ-4B R/B 3.3 05:08:13 10° NNE 05:12:46 76° ESE 05:17:12 10° S
Meteor 1-26 Rocket 4.2 05:07:23 10° NNW 05:13:15 80° W 05:18:54 10° S
Cosmos 2297 Rocket 3.9 05:14:14 16° NNW 05:14:14 16° NNW 05:16:56 10° N
Cosmos 1151 Rocket 2.9 05:12:35 31° NNW 05:14:30 66° W 05:18:44 10° S
Cosmos 1689 Rocket 2.8 05:14:24 10° S 05:16:25 41° S 05:16:25 41° S
ALOS 2.5 05:12:59 10° N 05:17:24 43° WNW 05:18:59 31° WSW
H-2A R/B 3.7 05:16:25 10° NNE 05:20:14 49° E 05:24:01 10° S
BREEZE-M DEB (TANK) 3.8 05:16:30 28° WNW 05:20:41 62° SSW 05:24:01 10° SE
SAR-Lupe-1 4.2 05:18:03 10° S 05:21:32 49° W 05:21:34 49° W
CZ-4C R/B 3.2 05:19:14 10° SSW 05:23:54 44° ESE 05:29:28 10° NE
Cosmos 1328 Rocket 3.5 05:22:03 18° NNW 05:25:09 59° W 05:29:30 10° S
ERBS 2.5 05:25:08 48° NNW 05:25:11 48° NNW 05:28:25 10° NE
CRYOSAT 2 4.3 05:20:42 10° S 05:25:30 61° W 05:30:21 10° N
ERS-2 4.4 05:22:52 10° SSW 05:23:14 12° SSW 05:23:14 12° SSW
Cosmos 2181 Rocket 3.9 05:19:45 10° NNW 05:25:55 63° W 05:31:58 10° S
BREEZE-M DEB (TANK) 3.6 05:25:50 23° SW 05:27:08 39° SSE 05:30:57 10° E
Lacrosse 5 2.5 05:24:23 10° SSW 05:29:20 56° SE 05:34:17 10° ENE
Cosmos 2263 Rocket 2.4 05:28:09 11° SW 05:33:24 50° NW 05:38:58 10° NNE
USA 305 3.6 05:32:40 30° NW 05:34:14 42° N 05:38:21 10° ENE
Meteor PRIRODA 3.5 05:31:08 10° N 05:34:52 69° WNW 05:38:34 10° SSW
PSLV R/B 4.1 05:31:27 10° S 05:35:30 51° W 05:38:31 17° NNW
Cosmos 1709 Rocket 4.3 05:31:07 10° SW 05:37:10 45° WNW 05:43:18 10° N
Meteor 2-3 Rocket 3.8 05:33:25 10° SSW 05:39:02 59° WNW 05:44:47 10° N
SJ 16-02 1.3 05:34:57 10° SSW 05:39:20 60° WNW 05:43:45 10° NNE
BREEZE-M DEB 4.2 05:31:43 20° WNW 05:39:41 67° SSW 05:43:24 10° SE
Okean 3 Rocket 4.0 05:36:46 10° SW 05:40:52 38° WNW 05:45:01 10° N
Cosmos 923 Rocket 4.2 05:37:01 17° NW 05:40:56 51° WSW 05:46:02 10° S
ASTRO F (AKARI) 4.1 05:38:26 10° NNE 05:41:33 86° ESE 05:44:39 10° SSW
USA 306 3.6 05:40:35 26° NW 05:42:31 41° N 05:46:37 10° ENE
Cosmos 1766 Rocket 4.0 05:38:20 10° SW 05:42:34 40° WNW 05:46:49 10° N
Cosmos 1862 4.1 05:39:12 10° S 05:43:10 54° E 05:47:09 10° NNE
Cosmos 2082 Rocket 4.4 05:42:23 10° N 05:46:13 18° NE 05:50:01 10° E
SJ-12 4.3 05:42:42 10° N 05:46:29 39° WNW 05:50:16 10° SW
Cosmos 1743 Rocket 3.8 05:42:31 10° S 05:46:57 73° E 05:51:26 10° NNE
COSMO-SKYMED 1 3.4 05:44:40 10° SSW 05:48:30 30° W 05:51:01 18° NW
Cosmos 1408 Rocket 3.6 05:47:01 10° SSW 05:51:24 56° WNW 05:55:48 10° N
CZ-2C R/B 3.5 05:46:32 10° SE 05:51:52 53° ENE 05:57:07 10° N
FENGYUN 3A 4.5 05:47:36 10° N 05:52:07 28° WNW 05:56:36 10° WSW
ATLAS 3B R/B 2.8 05:46:59 14° NW 05:53:02 75° SW 06:00:11 10° SSE
Cosmos 990 Rocket 4.0 05:48:56 10° SSW 05:54:11 86° WNW 05:59:29 10° NNE
PSLV R/B 3.7 05:54:15 10° NNE 05:58:11 80° WNW 06:02:00 10° SSW
ADEOS 4.5 05:54:46 10° N 05:59:03 26° WNW 06:03:19 10° WSW
EO 1 Delta rocket 4.0 05:55:04 10° S 06:00:11 56° W 06:04:46 10° NNW
Cosmos 1943 4.4 05:59:05 17° WNW 06:01:28 22° W 06:05:41 10° SSW
ATLAS CENTAUR R/B 1.1 05:59:53 15° NW 06:02:55 87° SW 06:06:50 10° SE
ATLAS 5 CENTAUR R/B 3.2 06:01:57 17° WNW 06:03:36 20° NW 06:05:45 10° NNE
Cosmos 1833 Rocket 4.2 05:58:43 10° NNW 06:03:42 31° NE 06:08:39 10° ESE
Cosmos 2074 Rocket 4.0 05:59:22 10° SSW 06:05:32 65° WNW 06:11:44 10° N
MOS 1 Rocket 3.5 06:01:40 10° S 06:06:17 53° W 06:11:15 10° NNW
Meteor 1-4 Rocket 3.9 06:06:07 17° W 06:06:32 18° W 06:08:55 10° SW
Cosmos 1805 Rocket 4.2 06:02:24 10° S 06:06:46 60° E 06:11:10 10° NNE
Meteor 1-31 Rocket 4.2 06:06:14 10° NNW 06:08:45 17° WNW 06:10:32 13° W
NOAA 6 4.0 06:04:36 10° NNE 06:09:46 89° WNW 06:14:53 10° SSW
Cosmos 1680 Rocket 4.1 06:05:01 10° NW 06:09:57 38° WSW 06:14:50 10° S
FALCON 9 DEB 4.0 06:07:31 10° SW 06:10:37 47° SSE 06:13:44 10° ENE
Cosmos 1782 3.8 06:07:27 10° NNW 06:10:48 26° W 06:14:10 10° SW
SMAP 3.6 06:07:04 10° NNE 06:11:44 66° ESE 06:16:21 10° S
SL-4 R/B 2.0 06:09:15 15° W 06:12:17 56° N 06:15:53 10° ENE
FALCON 9 DEB 3.8 06:10:04 10° SW 06:13:12 52° SSE 06:16:21 10° ENE
H-2A R/B 2.2 06:09:43 10° NNE 06:13:38 80° WNW 06:17:26 10° SSW
RESURS DK-1 2.3 06:10:58 10° SSW 06:15:07 82° WNW 06:19:19 10° NNE
NOSS 3-4 (A) 3.6 06:10:03 10° WSW 06:15:52 51° NW 06:22:11 10° NE
NOSS 3-4 (C) 3.6 06:10:10 10° WSW 06:15:59 51° NW 06:22:19 10° NE
Cosmos 2184 Rocket 4.1 06:13:29 10° SSW 06:19:40 55° WNW 06:25:55 10° N
Cosmos 2228 Rocket 3.2 06:15:44 10° NNW 06:20:06 55° W 06:24:23 10° S
Genesis I 3.3 06:16:30 10° SSW 06:20:18 76° SE 06:24:11 10° NE
Cosmos 405 Rocket 2.6 06:19:07 10° SSW 06:22:47 64° WNW 06:26:31 10° N
USA 234 3.4 06:17:09 10° ENE 06:23:45 82° SE 06:30:18 10° SW
Cosmos 1295 Rocket 4.5 06:17:55 10° S 06:24:01 86° W 06:30:09 10° N
CENTAUR R/B 4.4 06:19:36 11° WNW 06:25:07 21° WSW 06:31:08 10° SSW
Cosmos 1812 3.2 06:25:05 10° NNW 06:28:43 39° W 06:32:18 10° SSW
EXPRESS MD2 4.2 06:27:12 10° WNW 06:31:10 84° SSW 06:39:30 10° ESE
FALCON 9 DEB 3.3 06:29:33 10° SW 06:32:45 69° SSE 06:35:58 10° ENE
FALCON 9 DEB 3.8 06:30:46 10° WNW 06:34:07 41° N 06:37:26 10° ENE
Geosat 4.0 06:30:05 10° SSE 06:35:05 71° WSW 06:40:08 10° NNW
ATLAS 2AS CENTAUR R/B 3.2 06:28:04 10° WSW 06:35:53 55° NW 06:43:31 10° NE
Lacrosse 4 Rocket 3.5 06:35:48 10° W 06:37:34 12° WSW 06:39:19 10° SW
USA 307 3.5 06:33:55 10° WNW 06:38:05 45° N 06:42:14 10° E
EP 3 3.6 06:36:40 10° SW 06:38:41 75° SE 06:40:35 10° NE
USA-17 4.2 06:35:58 10° SW 06:39:34 79° NW 06:42:40 10° NE
YAOGAN 6 3.3 06:38:11 10° N 06:41:19 30° WNW 06:44:25 10° SW
Cosmos 372 Rocket 4.1 06:36:34 10° SSW 06:41:40 81° ESE 06:46:47 10° NNE
Cosmos 1633 Rocket 3.9 06:38:16 10° S 06:42:35 56° E 06:46:56 10° NNE
Gbstr 26 Del rocket 3.9 06:39:57 10° W 06:43:20 31° SW 06:47:00 10° SSE
Cosmos 1898 Rocket 3.9 06:38:46 10° SW 06:43:48 42° WNW 06:48:54 10° NNE
USA 308 3.5 06:40:10 10° WNW 06:44:20 46° N 06:48:29 10° E
Cosmos 1437 Rocket 3.0 06:41:09 10° NNW 06:44:47 44° W 06:48:23 10° SSW
